Location: Eisingen in Unterfranken
(49.7591°N, 9.8347°E)
Time: 14:48:20
(UTC+01:00)

N. Korean satellite - Pass Details

Date: 05 December 2022
Orbit: 407 x 441 km, 97.3° (Epoch: 05 February)

Event Time Altitude Azimuth Distance (km) Brightness Sun altitude
Rises 06:50:07 0° 360° (N) 2,526 10.0 -10.9°
Reaches altitude 10° 06:52:36 10° 342° (NNW) 1,638 8.9 -10.5°
Maximum altitude 06:55:07 19° 296° (WNW) 1,183 7.9 -10.2°
Drops below altitude 10° 06:57:36 10° 250° (WSW) 1,613 8.8 -9.8°
Sets 07:00:02 0° 232° (SW) 2,471 9.9 -9.4°
